Location: Prague
(50.0830°N, 14.4670°E)
Time: 17:44:03
(UTC+02:00)

DOVE 4 - Pass Details

Date: 06 April 2023
Orbit: 584 x 791 km, 97.8° (Epoch: 03 June)

Event Time Altitude Azimuth Distance (km) Brightness Sun altitude
Rises 00:00:14 0° 13° (NNE) 3,106 ? -32.0°
Reaches altitude 10° 00:02:34 10° 14° (NNE) 2,149 ? -32.1°
Enters shadow 00:04:58 30° 15° (NNE) 1,207 ? -32.2°
